Grayling, MI

6:16 AM EDT on August 17, 2017 (GMT -0400)
Grayling

Weather History for KGOV - June, 2013

Change the Weather History Date:

Friday, June 21, 2013

  Actual Average (KHTL) Record (KHTL)
Temperature  
Mean Temperature 66 °F -  
Max Temperature 83 °F 75 °F 98 °F (1923)
Min Temperature 48 °F 52 °F 31 °F (1969)
Growing Degree Days 16 (Base 50)    
Moisture  
Dew Point 57 °F    
Average Humidity 67    
Maximum Humidity 100    
Minimum Humidity 45    
Precipitation  
Precipitation 0.00 in - - ()
Sea Level Pressure  
Sea Level Pressure 30.11 in    
Wind  
Wind Speed 4 mph (South)    
Max Wind Speed 18 mph    
Max Gust Speed 28 mph    
Visibility 10 miles    
Events Rain    
Averages and records for this station are not official NWS values.
T = Trace of Precipitation, MM = Missing Value Source: NWS Daily Summary

Daily Weather History Graph

Daily Weather History Graph

Search for Another Location

Airport or City:

Trip Planner

Search our weather history database for the weather conditions in past years. The results will help you decide how hot, cold, wet, or windy it might be!

Date:

Astronomy

Jun. 21, 2013 Rise Set
Actual Time 5:53 AM EDT 9:28 PM EDT
Civil Twilight 5:16 AM EDT 10:05 PM EDT
Nautical Twilight 4:27 AM EDT 10:54 PM EDT
Astronomical Twilight 3:22 AM EDT 11:58 PM EDT
Moon 7:34 PM EDT (6/21) 4:12 AM EDT (6/21)
Length of Visible Light 16h 48m
Length of Day
15h 34m
Waxing Gibbous, 95% of the Moon is Illuminated
Jun 21
Waxing Gibbous
Jun 23
Full
Jun 30
Last Quarter
Jul 8
New
Jul 15
First Quarter

Hourly Weather History & Observations

Time (EDT) Temp. Heat Index Dew Point Humidity Pressure Visibility Wind Dir Wind Speed Gust Speed Precip Events Conditions
12:15 AM 61.5 °F - 52.5 °F 72% 30.19 in 10.0 mi Calm Calm - N/A   Clear
12:35 AM 59.0 °F - 52.5 °F 79% 30.19 in 10.0 mi SE 4.6 mph - N/A   Clear
12:55 AM 58.5 °F - 54.9 °F 88% 30.19 in 10.0 mi Calm Calm - N/A   Clear
1:14 AM 58.1 °F - 54.7 °F 88% 30.20 in 10.0 mi Calm Calm - N/A   Clear
1:35 AM 55.9 °F - 52.9 °F 89% 30.20 in 10.0 mi Calm Calm - N/A   Clear
1:55 AM 55.2 °F - 52.3 °F 90% 30.20 in 10.0 mi Calm Calm - N/A   Clear
2:14 AM 55.9 °F - 54.5 °F 95% 30.19 in 10.0 mi Calm Calm - N/A   Clear
2:35 AM 54.3 °F - 51.8 °F 91% 30.19 in 10.0 mi Calm Calm - N/A   Clear
2:55 AM 54.5 °F - 52.9 °F 94% 30.19 in 10.0 mi Calm Calm - N/A   Clear
3:14 AM 53.6 °F - 52.3 °F 95% 30.19 in 10.0 mi Calm Calm - N/A   Clear
3:35 AM 53.6 °F - 52.9 °F 97% 30.18 in 10.0 mi Calm Calm - N/A   Clear
3:55 AM 53.6 °F - 52.7 °F 97% 30.18 in 10.0 mi Calm Calm - N/A   Clear
4:14 AM 51.1 °F - 50.4 °F 97% 30.17 in 10.0 mi Calm Calm - N/A   Clear
4:35 AM 51.6 °F - 51.4 °F 99% 30.17 in 10.0 mi Calm Calm - N/A   Clear
4:55 AM 50.9 °F - 50.2 °F 97% 30.16 in 10.0 mi Calm Calm - N/A   Clear
5:15 AM 50.7 °F - 50.7 °F 100% 30.16 in 10.0 mi Calm Calm - N/A   Clear
5:35 AM 48.6 °F - 47.7 °F 97% 30.16 in 10.0 mi Calm Calm - N/A   Clear
5:55 AM 48.4 °F - 48.4 °F 100% 30.18 in 10.0 mi Calm Calm - N/A   Clear
6:15 AM 48.4 °F - 48.4 °F 100% 30.17 in 10.0 mi Calm Calm - N/A   Clear
6:35 AM 50.5 °F - 50.5 °F 100% 30.16 in 10.0 mi Calm Calm - N/A   Clear
6:55 AM 53.6 °F - 52.7 °F 97% 30.18 in 10.0 mi Calm Calm - N/A   Scattered Clouds
7:15 AM 55.9 °F - 53.2 °F 91% 30.18 in 10.0 mi Calm Calm - N/A   Scattered Clouds
7:35 AM 57.0 °F - 51.3 °F 81% 30.18 in 10.0 mi Calm Calm - N/A   Clear
7:55 AM 58.5 °F - 52.3 °F 80% 30.17 in 10.0 mi Calm Calm - N/A   Clear
8:15 AM 59.9 °F - 53.1 °F 78% 30.17 in 10.0 mi Calm Calm - N/A   Clear
8:35 AM 61.7 °F - 53.8 °F 75% 30.16 in 10.0 mi Calm Calm - N/A   Clear
8:54 AM 68.5 °F - 57.2 °F 67% 30.15 in 10.0 mi SE 5.8 mph - N/A   Clear
9:15 AM 71.1 °F - 56.7 °F 60% 30.14 in 10.0 mi SE 5.8 mph - N/A   Clear
9:35 AM 73.6 °F - 56.1 °F 54% 30.16 in 10.0 mi SSE 9.2 mph - N/A   Clear
9:54 AM 73.6 °F - 56.1 °F 54% 30.16 in 10.0 mi South 8.1 mph - N/A   Clear
10:15 AM 73.8 °F - 56.8 °F 55% 30.15 in 10.0 mi SE 9.2 mph - N/A   Scattered Clouds
10:34 AM 75.7 °F - 58.5 °F 55% 30.14 in 10.0 mi SE 10.4 mph - N/A   Scattered Clouds
10:55 AM 76.1 °F - 59.4 °F 56% 30.15 in 10.0 mi SSE 9.2 mph 16.1 mph N/A   Clear
11:15 AM 76.1 °F - 60.3 °F 58% 30.15 in 10.0 mi South 9.2 mph - N/A   Mostly Cloudy
11:34 AM 76.1 °F - 61.0 °F 59% 30.15 in 10.0 mi South 6.9 mph - N/A   Overcast
11:55 AM 76.1 °F - 61.5 °F 60% 30.14 in 10.0 mi South 8.1 mph - N/A   Overcast
12:15 PM 78.6 °F - 62.2 °F 57% 30.14 in 10.0 mi South 6.9 mph - N/A   Mostly Cloudy
12:34 PM 78.8 °F - 62.2 °F 57% 30.14 in 10.0 mi South 9.2 mph - N/A   Mostly Cloudy
12:55 PM 79.7 °F - 62.6 °F 56% 30.13 in 10.0 mi South 8.1 mph - N/A   Scattered Clouds
1:15 PM 79.9 °F - 62.2 °F 55% 30.12 in 10.0 mi SSE 10.4 mph - N/A   Clear
1:34 PM 80.8 °F 81.8 °F 61.7 °F 52% 30.11 in 10.0 mi South 8.1 mph 16.1 mph N/A   Clear
1:55 PM 81.9 °F 82.6 °F 61.3 °F 50% 30.11 in 10.0 mi SSW 11.5 mph 18.4 mph N/A   Clear
2:15 PM 81.1 °F 81.9 °F 60.8 °F 50% 30.10 in 10.0 mi South 10.4 mph 17.3 mph N/A   Clear
2:34 PM 82.4 °F 82.9 °F 60.8 °F 48% 30.10 in 10.0 mi SSW 11.5 mph 18.4 mph N/A   Clear
2:55 PM 81.1 °F 81.8 °F 60.3 °F 49% 30.08 in 10.0 mi South 17.3 mph 24.2 mph N/A   Clear
3:15 PM 81.1 °F 81.9 °F 61.0 °F 50% 30.06 in 10.0 mi South 13.8 mph 20.7 mph N/A   Scattered Clouds
3:34 PM 83.3 °F 83.4 °F 59.7 °F 45% 30.03 in 10.0 mi South 18.4 mph 27.6 mph N/A   Scattered Clouds
3:55 PM 81.9 °F 82.2 °F 60.1 °F 47% 30.04 in 10.0 mi South 16.1 mph 26.5 mph N/A   Clear
4:15 PM 80.1 °F 81.0 °F 60.3 °F 51% 30.04 in 10.0 mi South 11.5 mph 25.3 mph N/A   Scattered Clouds
4:34 PM 78.8 °F - 62.1 °F 56% 30.03 in 10.0 mi South 9.2 mph 20.7 mph N/A   Light Drizzle
4:55 PM 79.2 °F - 60.8 °F 53% 30.02 in 10.0 mi SSE 9.2 mph 16.1 mph N/A Rain Light Rain
5:15 PM 81.3 °F 82.3 °F 61.9 °F 52% 30.01 in 10.0 mi SSE 8.1 mph 17.3 mph N/A   Scattered Clouds
5:35 PM 81.5 °F 82.5 °F 62.2 °F 52% 30.01 in 10.0 mi SSE 11.5 mph 18.4 mph N/A   Clear
5:55 PM 81.1 °F 81.6 °F 59.5 °F 48% 30.01 in 10.0 mi South 11.5 mph 21.9 mph N/A   Clear
6:14 PM 80.2 °F 80.8 °F 59.0 °F 48% 30.01 in 10.0 mi South 11.5 mph 21.9 mph N/A   Clear
6:35 PM 81.5 °F 81.8 °F 59.2 °F 47% 30.01 in 10.0 mi South 15.0 mph 25.3 mph N/A   Scattered Clouds
6:55 PM 81.5 °F 81.7 °F 58.8 °F 46% 30.00 in 10.0 mi South 10.4 mph 23.0 mph N/A   Mostly Cloudy
7:14 PM 81.1 °F 81.5 °F 59.0 °F 47% 30.00 in 10.0 mi SSW 12.7 mph 23.0 mph N/A   Scattered Clouds
7:35 PM 79.9 °F - 59.0 °F 49% 30.00 in 10.0 mi SSW 9.2 mph 18.4 mph N/A   Scattered Clouds
7:54 PM 79.2 °F - 59.2 °F 50% 30.01 in 10.0 mi SSW 16.1 mph 20.7 mph N/A   Scattered Clouds
8:15 PM 79.9 °F - 59.5 °F 50% 30.00 in 10.0 mi SSW 11.5 mph 18.4 mph N/A   Scattered Clouds
8:35 PM 79.0 °F - 59.4 °F 51% 30.00 in 10.0 mi South 15.0 mph 19.6 mph N/A   Mostly Cloudy
8:54 PM 78.8 °F - 59.4 °F 51% 30.01 in 10.0 mi South 10.4 mph - N/A   Mostly Cloudy
9:15 PM 78.8 °F - 60.1 °F 53% 30.01 in 10.0 mi South 9.2 mph - N/A   Mostly Cloudy
9:35 PM 78.8 °F - 61.0 °F 54% 30.01 in 10.0 mi SSW 6.9 mph 16.1 mph N/A   Mostly Cloudy
9:54 PM 76.8 °F - 60.3 °F 56% 30.02 in 10.0 mi SW 5.8 mph - N/A   Scattered Clouds
10:15 PM 76.1 °F - 60.3 °F 58% 30.02 in 10.0 mi SW 4.6 mph - N/A   Clear
10:34 PM 76.1 °F - 61.7 °F 61% 30.03 in 10.0 mi SSW 5.8 mph - N/A   Scattered Clouds
10:55 PM 75.9 °F - 61.2 °F 60% 30.03 in 10.0 mi SW 9.2 mph - N/A   Scattered Clouds
11:15 PM 73.6 °F - 59.2 °F 61% 30.03 in 10.0 mi SW 8.1 mph - N/A   Clear
11:34 PM 73.6 °F - 59.5 °F 61% 30.03 in 10.0 mi WSW 4.6 mph - N/A   Scattered Clouds
11:55 PM 73.6 °F - 60.4 °F 63% 30.03 in 10.0 mi WSW 4.6 mph - N/A   Mostly Cloudy